This is the latest recevied weather packets stored in our database for station/object W4KAB. If no packets are shown the sender has not sent any weather packets the latest 10 day(s).
| Time | Temp. | Humidity | Pressure | Rain* | Wind** | Luminosity | Snow |
|---|---|---|---|---|---|---|---|
| 1777762215 | 15° C | 42% | 1014.2 hPa | 0 mm | - | 65 W/m² | - |
| 1777761911 | 15.56° C | 40% | 1014.1 hPa | 0 mm | - | 26 W/m² | - |
| 1777761608 | 15.56° C | 40% | 1014.1 hPa | 0 mm | - | 33 W/m² | - |
| 1777761306 | 15.56° C | 39% | 1014.1 hPa | 0 mm | - | 51 W/m² | - |
| 1777761004 | 15.56° C | 40% | 1014.2 hPa | 0 mm | - | 45 W/m² | - |
| 1777760701 | 16.11° C | 40% | 1013.9 hPa | 0 mm | - | 42 W/m² | - |
| 1777760396 | 16.67° C | 39% | 1013.9 hPa | 0 mm | - | 53 W/m² | - |
| 1777760093 | 16.67° C | 38% | 1013.5 hPa | 0 mm | - | 56 W/m² | - |
| 1777759790 | 16.67° C | 38% | 1013.3 hPa | 0 mm | - | 82 W/m² | - |
| 1777759485 | 16.11° C | 39% | 1013.3 hPa | 0 mm | - | 53 W/m² | - |
| 1777759183 | 16.11° C | 38% | 1013.3 hPa | 0 mm | - | 52 W/m² | - |
| 1777758880 | 16.11° C | 39% | 1012.9 hPa | 0 mm | - | 59 W/m² | - |
| 1777758577 | 16.11° C | 40% | 1013 hPa | 0 mm | - | 45 W/m² | - |
| 1777758273 | 16.11° C | 40% | 1013 hPa | 0 mm | - | 47 W/m² | - |
| 1777757971 | 16.67° C | 39% | 1012.9 hPa | 0 mm | - | 59 W/m² | - |
| 1777757667 | 16.67° C | 39% | 1012.7 hPa | 0 mm | - | 71 W/m² | - |
| 1777757366 | 16.67° C | 38% | 1012.6 hPa | 0 mm | - | 64 W/m² | - |
| 1777757065 | 16.67° C | 37% | 1012.7 hPa | 0 mm | - | 46 W/m² | - |
| 1777756761 | 16.67° C | 39% | 1012.7 hPa | 0 mm | - | 54 W/m² | - |
| 1777756457 | 17.22° C | 39% | 1012.4 hPa | 0 mm | - | 71 W/m² | - |
| 1777756155 | 17.22° C | 38% | 1012.5 hPa | 0 mm | - | 64 W/m² | - |
| 1777755852 | 17.22° C | 37% | 1012.4 hPa | 0 mm | - | 55 W/m² | - |
| 1777755549 | 17.22° C | 35% | 1012.2 hPa | 0 mm | - | 56 W/m² | - |
| 1777755244 | 17.78° C | 36% | 1012.4 hPa | 0 mm | - | 71 W/m² | - |
| 1777754942 | 17.78° C | 39% | 1012.4 hPa | 0 mm | - | 95 W/m² | - |
* Rain latest hour (hover to see other rain measurements)
** Current wind speed in m/s (hover to see current wind gust speed)